カタログに戻る

CZ-6A DEB

運用中SSO
NORAD 56252·DEBRIS·🇨🇳 China

打ち上げ Nov 11, 2022 から Taiyuan Satellite Launch Center

Loading…

次のパス (今後24時間)

TLE

最新Source: Space-Track

元期: Sep 13, 2026, 10:48 UTC

1 56252U 22151ABU 26256.45022962  .00000643  00000-0  41386-3 0  9990
2 56252  98.8844 241.7085 0086105 105.9382 255.1293 14.04756629178667

AllMySatでCZ-6A DEBをリアルタイム追跡

Download on the App Store